Walvis Bay Airport

Jump to: basic info | weather | frequencies | runways | comments

Related pages: nearby airports | nearby navaids | notams | map

Basic information (top)

Codes: WVB FYWB
Location: lon -22.979900, lat 14.645300, elev 299 ft / 91 m msl
Status: medium_airport
Scheduled airline service: no
Links: Wikipedia Mobile

Weather (top)

Current conditions (rec'd 2014/11/28 13:00Z):

FYWB 281300Z 30009KT CAVOK 21/12 Q1013

Airport forecast (rec'd 2014/11/23 06:00Z):

TAF FYWB 230400Z 2306/2412 05006KT CAVOK 
      BECMG 2309/2311 33010KT 
      BECMG 2319/2321 9999 BKN012 PROB30 
      TEMPO 2323/2404 05005KT 0800 FG OVC008 

Frequencies (top)

Verify before use: may be inaccurate or out of date.

APP: 122.5 MHz (APP)
TWR: 122.5 MHz (TWR)

Runways (top)

09/27: 7,001 x 98 ft (2,134 x 30 m) — paved — lighted

Latest comments (top)

No comments yet for Walvis Bay Airport

More... (top)

See also NOTAMs and nearby airports and navaids, or visit the Walvis Bay Airport page at the main OurAirports website..